Terminal Aerodrome Forecast
Issued by NWS

Home | Current Version | Previous Version | Text Only | Print | Product List | Glossary On
Versions: 1 2 3 4 5 6 7 8 9 10 11 12 13 14 15 16 17 18 19 20 21
000
FTUS43 KIND 271300 AAA
TAFLAF
TAF AMD
KLAF 271359Z 2714/2812 20006KT 3SM BR OVC006
     FM271600 24010KT 5SM -RA BR OVC010
     FM272200 27008KT 6SM -SHRA BR OVC012
     FM280600 33006KT P6SM OVC020
      AMD LTD TO CLD VIS AND WIND TIL 271400=

USA.gov is the U.S. government's official web portal to all federal, state and local government web resources and services.